Torna al catalogo

OPS 4682 DEB

AttivoPO
NORAD 26731·DEBRIS·🇺🇸 United States

Lanciato Apr 3, 1965 da Vandenberg Space Force Base

Loading…

Prossimi Passaggi (prossime 24 ore)

TLE

AggiornatoSource: Space-Track

Epoca: Sep 14, 2026, 07:08 UTC

1 26731U 65027BE  26257.29772590  .00000264  00000-0  91035-3 0  9995
2 26731  90.2650  16.5434 0021531 349.7211  38.5600 12.95368798573381

Traccia OPS 4682 DEB in tempo reale con AllMySat

Download on the App Store